Regional Weather Roundup
Issued by NWS

Home | Current Version | Previous Version | Graphics & Text | Print | Product List | Glossary On
Versions: 1 2 3 4 5 6 7 8 9 10 11 12 13 14 15 16 17 18 19 20 21 22 23 24 25 26 27 28 29 30 31 32 33 34 35 36 37 38 39 40 41 42 43 44 45 46 47 48 49 50
000
ASUS43 KDMX 181701
RWRIA

WEATHER ROUNDUP FOR IOWA
NATIONAL WEATHER SERVICE DES MOINES IA
1100 AM CST THU JAN 18 2018

NOTE: "FAIR" INDICATES FEW OR NO CLOUDS BELOW 12,000 FEET WITH NO
SIGNIFICANT WEATHER AND/OR OBSTRUCTIONS TO VISIBILITY.

* - THESE STATIONS ARE NOT NWS STATIONS...THUS NOT UNDER NWS
QUALITY CONTROL.  THEY ALSO DO NOT REPORT WEATHER SUCH
AS PRECIPITATION OR FOG.

IAZ001>003-012>014-020>022-031>034-043>046-181800-
   NORTHWEST IOWA

CITY           SKY/WX    TMP DP  RH WIND       PRES   REMARKS
CARROLL *      SUNNY     28  18  64 SW13      30.04F WCI  18
CHEROKEE *     SUNNY     30  21  67 S9        30.00F WCI  22
DENISON *      CLOUDY    28  16  59 SW12      30.06F WCI  18
LE MARS *      SUNNY     30  21  69 S10       29.99S WCI  21
ORANGE CITY *  SUNNY     30  25  80 S12       29.96F WCI  21
SHELDON *      SUNNY     28  21  74 S10       29.94F WCI  19
SIOUX CITY     SUNNY     27  19  72 SE10      30.02F WCI  17
SPENCER        SUNNY     31  21  66 SW10      29.97F WCI  22
STORM LAKE *   SUNNY     28  19  69 SW15      29.99S WCI  17
$$

IAZ055>058-069>071-079>083-090>094-181800-
   SOUTHWEST IOWA

CITY           SKY/WX    TMP DP  RH WIND       PRES   REMARKS
ATLANTIC *     CLOUDY    25  14  63 SW15      30.10S WCI  12
AUDUBON *      CLOUDY    27  16  63 SW13      30.07S WCI  16
CLARINDA *     MOSUNNY   25  14  63 SW9         N/A  WCI  15
COUNCIL BLFS * CLOUDY    25  14  63 SW10      30.09S WCI  15
CRESTON *      SUNNY     25  14  63 SW15      30.12R WCI  12
HARLAN  *      CLOUDY    23  14  68 SW12      30.12S WCI  12
LAMONI         CLOUDY    26  13  57 SW16      30.12S WCI  14
RED OAK *      SUNNY     27  14  59 SW12      30.13S WCI  16
SHENANDOAH *   SUNNY     27  14  59 SW14      30.14S WCI  15
$$

IAZ047>049-059>061-072>074-084-181800-
   CENTRAL IOWA

CITY           SKY/WX    TMP DP  RH WIND       PRES   REMARKS
AMES             N/A     26  17  68 SW12      30.07S WCI  16
ANKENY *       SUNNY     30  14  51 SW9       30.11R WCI  22
BOONE *        SUNNY     28  16  59 SW14      30.04F WCI  17
CHARITON *     CLOUDY    27  14  59 SW16G23   30.11R WCI  14
DES MOINES     MOSUNNY   29  13  51 SW15      30.10R WCI  18
GRINNELL*      SUNNY     25  15  64 SW16      30.10S WCI  13
KNOXVILLE *    SUNNY     28  12  50 SW15      30.10R WCI  17
MARSHALLTOWN   SUNNY     26  16  65 SW16      30.06S WCI  14
NEWTON *       SUNNY     27  14  59 SW12      30.10S WCI  16
PELLA *        SUNNY     29  13  52 SW9       30.13R WCI  20
PERRY *          N/A     29  16  57 SW10      30.07F WCI  20
$$

IAZ004>006-015-016-023>025-035-036-181800-
   NORTH CENTRAL IOWA

CITY           SKY/WX    TMP DP  RH WIND       PRES   REMARKS
ALGONA *       SUNNY     27  27 100 SW12      29.98S WCI  16
CLARION *      CLOUDY    25  21  86 SW15      30.02F WCI  12
ESTHERVILLE    SUNNY     29  22  75 SW14      29.95S WCI  18
FORT DODGE *   SUNNY     27  17  66 SW10      30.03R WCI  17
MASON CITY     CLOUDY    27  17  66 SW13      30.00R WCI  16
FOREST CITY *    N/A     28  21  74 SW10      29.98S WCI  19
WEBSTER CITY * SUNNY     27  16  63 SW14      30.02R WCI  15
IOWA FALLS *     N/A     27  17  66 SW12      30.05R HAZE    WCI  17
$$

IAZ007>011-017>019-026>030-037>042-050>054-066-181800-
   NORTHEAST IOWA

CITY           SKY/WX    TMP DP  RH WIND       PRES   REMARKS
CEDAR RAPIDS     N/A     27  15  61 SW12      30.09R WCI  17
CHARLES CITY *   N/A     27  18  69 SW10      30.01S WCI  17
CLINTON *        N/A     28  18  66 W13       30.13R WCI  17
DECORAH *        N/A     25  18  74 VRB6G14   29.98S WCI  18
DUBUQUE          N/A     22  13  68 SW18      30.03F WCI   7
MONTICELLO *     N/A     27  16  63 SW15      30.07F WCI  15
OELWEIN *        N/A     25  18  74 SW14      30.03F WCI  13
WATERLOO         N/A     26  15  63 SW14      30.05R WCI  14
$$

IAZ064-065-067-068-078-181800-
   EAST CENTRAL IOWA

CITY           SKY/WX    TMP DP  RH WIND       PRES   REMARKS
DAVENPORT        N/A     26  14  60 SW14      30.14R WCI  14
IOWA CITY        N/A     27  12  53 SW12      30.15R WCI  17
MT. PLEASANT * CLOUDY    28  14  54 SW18      30.14F WCI  16
MUSCATINE *      N/A     27  14  59 SW8G15    30.15F WCI  18
QUAD CITIES      N/A     27  14  58 SW12      30.14R WCI  17
$$

IAZ062-063-075>077-085>089-095>099-181800-
   SOUTHEAST IOWA

CITY           SKY/WX    TMP DP  RH WIND       PRES   REMARKS
BURLINGTON     CLOUDY    26  14  60 SW16      30.16F WCI  14
FAIRFIELD *    MOSUNNY   28  12  50 SW17G24   30.12S WCI  16
FORT MADISON * CLOUDY    28  14  54 S13       30.17F WCI  18
KEOKUK *       CLOUDY    28  12  50 SW17      30.18F WCI  16
OSKALOOSA *      N/A     27  16  62 SW17      30.11F WCI  14
OTTUMWA        SUNNY     29  13  51 SW14G23   30.11S WCI  18
WASHINGTON *   MOSUNNY   28  16  59 SW14G21   30.13F WCI  17
$$

ABBREVIATIONS USED IN REMARKS
   TC - TEMPERATURES IN CELSIUS
  WCI - WIND CHILL INDEX
   HX - HEAT INDEX
  VSB - VISIBILITY
$$





USA.gov is the U.S. government's official web portal to all federal, state and local government web resources and services.